sat.trackr.live / text

‹ back to catalog

STARLINK-37644

NORAD 69042 · 2026-101T

PAYLOAD ACTIVE UNKNOWN

§ Identity

Operator
Country
US
Launch date
2026-05-06
Launch site
AFWTR
Launch vehicle
Mass (kg)
RCS (m²)

Purposes: comms

External: N2YO · Heavens-Above · Gunter

§ Orbital elements

Epoch: 2026-09-19T08:30:20.395872Z

Period
93.91 min
Inclination
97.2853°
Eccentricity
0.0002136
Mean motion
15.33434889 rev/d
Perigee alt
464.1 km
Apogee alt
467.0 km
Semi-major
6,843.7 km
B*
3.1639e-4
RAAN
115.8600°
Arg perigee
88.2608°
Mean anomaly
271.8879°
Rev number
2,100

§ Raw data

STARLINK-376441 69042U 26101T   26262.35440273  .00010150  00000+0  31639-3 0  99982 69042  97.2853 115.8600 0002136  88.2608 271.8879 15.33434889 21005

JSON: /api/v1/satellites/69042 · /tle

For live sub-satellite position, see the globe view (requires WebGL).

§ Visibility from observer

Set your observer location to see the next 7 days of passes ≥ 10°. The values pass through the URL so the page stays shareable.

No JS? Fill the form by hand. The geolocation button needs JavaScript.